Time,TemperatureF,DewpointF,PressureIn,WindDirection,WindDirectionDegrees,WindSpeedMPH,WindSpeedGustMPH,Humidity,HourlyPrecipIn,Conditions,Clouds,dailyrainin,SoftwareType,DateUTC
2013-01-18 00:00:00,33.6,17.0,30.47,NNE,22,0.0,5.6,50,0.00,,CLR,0.00,VWS V14.01,2013-01-18 05:00:00,
2013-01-18 00:01:00,33.6,17.0,30.47,NNE,22,0.0,5.6,50,0.00,,CLR,0.00,VWS V14.01,2013-01-18 05:01:00,
2013-01-18 00:03:00,33.6,17.4,30.47,NW,315,0.0,5.6,51,0.00,,CLR,0.00,VWS V14.01,2013-01-18 05:03:00,
2013-01-18 00:08:00,33.4,17.3,30.47,WNW,292,0.0,5.6,51,0.00,,CLR,0.00,VWS V14.01,2013-01-18 05:08:00,
2013-01-18 00:13:00,33.3,17.5,30.50,WNW,292,0.0,5.6,52,0.00,,CLR,0.00,VWS V14.01,2013-01-18 05:13:00,
2013-01-18 00:18:00,33.1,17.4,30.50,NNE,22,0.0,5.6,52,0.00,,CLR,0.00,VWS V14.01,2013-01-18 05:18:00,
2013-01-18 00:23:00,32.9,16.8,30.50,North,0,0.0,5.6,51,0.00,,CLR,0.00,VWS V14.01,2013-01-18 05:23:00,
2013-01-18 00:28:00,33.1,17.4,30.50,North,0,0.0,5.6,52,0.00,,CLR,0.00,VWS V14.01,2013-01-18 05:28:00,
2013-01-18 00:33:00,33.1,16.9,30.50,North,0,3.6,5.6,51,0.00,,CLR,0.00,VWS V14.01,2013-01-18 05:33:00,
2013-01-18 00:38:00,33.1,16.9,30.50,NNE,22,0.0,5.6,51,0.00,,CLR,0.00,VWS V14.01,2013-01-18 05:38:00,
2013-01-18 00:43:00,33.1,16.9,30.50,NNE,22,1.3,5.6,51,0.00,,CLR,0.00,VWS V14.01,2013-01-18 05:43:00,
2013-01-18 00:48:00,33.1,16.9,30.50,NNE,22,2.7,5.6,51,0.00,,CLR,0.00,VWS V14.01,2013-01-18 05:48:00,
2013-01-18 00:53:00,32.9,16.8,30.50,NNW,338,2.2,5.6,51,0.00,,CLR,0.00,VWS V14.01,2013-01-18 05:53:00,
2013-01-18 00:58:00,32.9,16.8,30.53,NNW,338,0.0,5.6,51,0.00,,CLR,0.00,VWS V14.01,2013-01-18 05:58:00,
2013-01-18 01:03:00,32.9,16.8,30.53,NNW,338,0.0,2.2,51,0.00,,CLR,0.00,VWS V14.01,2013-01-18 06:03:00,
2013-01-18 01:08:00,32.7,16.6,30.53,North,0,0.0,2.9,51,0.00,,CLR,0.00,VWS V14.01,2013-01-18 06:08:00,
2013-01-18 01:13:00,32.7,16.6,30.47,NW,315,2.5,3.8,51,0.00,,CLR,0.00,VWS V14.01,2013-01-18 06:13:00,
2013-01-18 01:18:00,32.7,16.6,30.47,North,0,2.9,3.8,51,0.00,,CLR,0.00,VWS V14.01,2013-01-18 06:18:00,
2013-01-18 01:23:00,32.7,16.6,30.47,North,0,2.0,3.8,51,0.00,,CLR,0.00,VWS V14.01,2013-01-18 06:23:00,
2013-01-18 01:28:00,32.5,16.4,30.47,NNW,338,1.1,3.8,51,0.00,,CLR,0.00,VWS V14.01,2013-01-18 06:28:00,
2013-01-18 01:33:00,32.5,16.4,30.47,NNW,338,2.5,3.8,51,0.00,,CLR,0.00,VWS V14.01,2013-01-18 06:33:00,
2013-01-18 01:38:00,32.5,16.4,30.47,NW,315,2.7,3.8,51,0.00,,CLR,0.00,VWS V14.01,2013-01-18 06:38:00,
2013-01-18 01:43:00,32.5,16.4,30.47,NNE,22,1.6,3.8,51,0.00,,CLR,0.00,VWS V14.01,2013-01-18 06:43:00,
2013-01-18 01:48:00,32.4,16.3,30.47,NE,45,0.0,3.8,51,0.00,,CLR,0.00,VWS V14.01,2013-01-18 06:48:00,
2013-01-18 01:53:00,32.2,16.1,30.47,NE,45,0.0,3.8,51,0.00,,CLR,0.00,VWS V14.01,2013-01-18 06:53:00,
2013-01-18 01:58:00,32.2,16.5,30.47,NNW,338,0.0,3.8,52,0.00,,CLR,0.00,VWS V14.01,2013-01-18 06:58:00,
2013-01-18 02:03:00,32.0,16.4,30.47,NNW,338,0.0,0.0,52,0.00,,CLR,0.00,VWS V14.01,2013-01-18 07:03:00,
2013-01-18 02:08:00,31.6,16.5,30.47,NNW,338,0.0,0.0,53,0.00,,CLR,0.00,VWS V14.01,2013-01-18 07:08:00,
2013-01-18 02:13:00,31.5,16.8,30.50,NNW,338,0.0,0.0,54,0.00,,CLR,0.00,VWS V14.01,2013-01-18 07:13:00,
2013-01-18 02:18:00,31.3,16.6,30.50,NNW,338,0.0,0.0,54,0.00,,CLR,0.00,VWS V14.01,2013-01-18 07:18:00,
2013-01-18 02:23:00,31.1,16.8,30.50,NNW,338,0.0,0.0,55,0.00,,CLR,0.00,VWS V14.01,2013-01-18 07:23:00,
2013-01-18 02:28:00,30.9,17.1,30.53,NNE,22,0.0,0.0,56,0.00,,CLR,0.00,VWS V14.01,2013-01-18 07:28:00,
2013-01-18 02:33:00,30.7,16.9,30.53,ENE,68,0.0,0.0,56,0.00,,CLR,0.00,VWS V14.01,2013-01-18 07:33:00,
2013-01-18 02:38:00,30.6,16.7,30.53,ENE,68,0.0,0.0,56,0.00,,CLR,0.00,VWS V14.01,2013-01-18 07:38:00,
2013-01-18 02:43:00,30.4,16.6,30.53,ENE,68,0.0,0.0,56,0.00,,CLR,0.00,VWS V14.01,2013-01-18 07:43:00,
2013-01-18 02:48:00,30.4,17.0,30.53,ENE,68,0.0,0.0,57,0.00,,CLR,0.00,VWS V14.01,2013-01-18 07:48:00,
2013-01-18 02:53:00,30.2,16.8,30.53,North,0,0.0,0.0,57,0.00,,CLR,0.00,VWS V14.01,2013-01-18 07:53:00,
2013-01-18 02:58:00,30.2,17.2,30.53,NNE,22,0.0,0.0,58,0.00,,CLR,0.00,VWS V14.01,2013-01-18 07:58:00,
2013-01-18 03:03:00,30.2,17.2,30.53,NNE,22,0.0,0.0,58,0.00,,CLR,0.00,VWS V14.01,2013-01-18 08:03:00,
2013-01-18 03:08:00,30.2,17.2,30.53,NNW,338,0.0,0.0,58,0.00,,CLR,0.00,VWS V14.01,2013-01-18 08:08:00,
2013-01-18 03:13:00,30.2,16.8,30.53,NNW,338,2.5,3.4,57,0.00,,CLR,0.00,VWS V14.01,2013-01-18 08:13:00,
2013-01-18 03:18:00,30.4,16.6,30.53,NW,315,1.1,3.8,56,0.00,,CLR,0.00,VWS V14.01,2013-01-18 08:18:00,
2013-01-18 03:23:00,30.6,16.3,30.53,North,0,2.2,3.8,55,0.00,,CLR,0.00,VWS V14.01,2013-01-18 08:23:00,
2013-01-18 03:28:00,30.6,15.9,30.53,North,0,0.0,3.8,54,0.00,,CLR,0.00,VWS V14.01,2013-01-18 08:28:00,
2013-01-18 03:33:00,30.6,15.9,30.53,NNW,338,2.0,3.8,54,0.00,,CLR,0.00,VWS V14.01,2013-01-18 08:33:00,
2013-01-18 03:38:00,30.6,15.9,30.53,NNW,338,0.0,3.8,54,0.00,,CLR,0.00,VWS V14.01,2013-01-18 08:38:00,
2013-01-18 03:43:00,30.6,15.5,30.56,NNW,338,0.0,3.8,53,0.00,,CLR,0.00,VWS V14.01,2013-01-18 08:43:00,
2013-01-18 03:48:00,30.4,15.7,30.56,NNW,338,0.0,3.8,54,0.00,,CLR,0.00,VWS V14.01,2013-01-18 08:48:00,
2013-01-18 03:53:00,30.2,16.0,30.56,NNW,338,0.0,3.8,55,0.00,,CLR,0.00,VWS V14.01,2013-01-18 08:53:00,
2013-01-18 03:58:00,29.8,15.2,30.53,NNW,338,0.0,3.8,54,0.00,,CLR,0.00,VWS V14.01,2013-01-18 08:58:00,
2013-01-18 04:03:00,29.7,15.1,30.53,NNE,22,0.0,0.0,54,0.00,,CLR,0.00,VWS V14.01,2013-01-18 09:03:00,
2013-01-18 04:08:00,29.7,15.5,30.53,NE,45,0.0,0.0,55,0.00,,CLR,0.00,VWS V14.01,2013-01-18 09:08:00,
2013-01-18 04:13:00,29.5,15.3,30.53,NE,45,0.0,0.0,55,0.00,,CLR,0.00,VWS V14.01,2013-01-18 09:13:00,
2013-01-18 04:18:00,29.5,15.3,30.53,North,0,0.0,0.0,55,0.00,,CLR,0.00,VWS V14.01,2013-01-18 09:18:00,
2013-01-18 04:23:00,29.5,15.3,30.53,North,0,0.0,0.0,55,0.00,,CLR,0.00,VWS V14.01,2013-01-18 09:23:00,
2013-01-18 04:28:00,29.3,15.6,30.53,North,0,0.0,0.0,56,0.00,,CLR,0.00,VWS V14.01,2013-01-18 09:28:00,
2013-01-18 04:33:00,29.3,16.0,30.53,North,0,0.0,0.0,57,0.00,,CLR,0.00,VWS V14.01,2013-01-18 09:33:00,
2013-01-18 04:38:00,29.1,15.8,30.53,North,0,0.0,0.0,57,0.00,,CLR,0.00,VWS V14.01,2013-01-18 09:38:00,
2013-01-18 04:43:00,28.8,15.9,30.56,North,0,0.0,0.0,58,0.00,,CLR,0.00,VWS V14.01,2013-01-18 09:43:00,
2013-01-18 04:48:00,28.6,16.1,30.56,North,0,0.0,0.0,59,0.00,,CLR,0.00,VWS V14.01,2013-01-18 09:48:00,
2013-01-18 04:53:00,28.6,16.5,30.56,North,0,0.0,0.0,60,0.00,,CLR,0.00,VWS V14.01,2013-01-18 09:53:00,
2013-01-18 04:58:00,28.4,16.7,30.56,North,0,0.0,0.0,61,0.00,,CLR,0.00,VWS V14.01,2013-01-18 09:58:00,
2013-01-18 05:03:00,28.2,16.5,30.56,North,0,0.0,0.0,61,0.00,,CLR,0.00,VWS V14.01,2013-01-18 10:03:00,
2013-01-18 05:08:00,28.2,16.1,30.56,North,0,0.0,0.0,60,0.00,,CLR,0.00,VWS V14.01,2013-01-18 10:08:00,
2013-01-18 05:13:00,28.0,16.3,30.56,North,0,0.0,0.0,61,0.00,,CLR,0.00,VWS V14.01,2013-01-18 10:13:00,
2013-01-18 05:17:00,28.0,16.3,30.56,NNE,22,0.0,0.0,61,0.00,,CLR,0.00,VWS V14.01,2013-01-18 10:17:00,
2013-01-18 05:23:00,28.0,16.0,30.56,NE,45,0.0,0.0,60,0.00,,CLR,0.00,VWS V14.01,2013-01-18 10:23:00,
2013-01-18 05:28:00,28.0,16.3,30.56,NE,45,0.0,0.0,61,0.00,,CLR,0.00,VWS V14.01,2013-01-18 10:28:00,
2013-01-18 05:33:00,28.0,16.7,30.56,North,0,0.0,0.0,62,0.00,,CLR,0.00,VWS V14.01,2013-01-18 10:33:00,
2013-01-18 05:37:00,28.0,17.1,30.56,NNE,22,0.0,0.0,63,0.00,,CLR,0.00,VWS V14.01,2013-01-18 10:37:00,
2013-01-18 05:42:00,28.0,17.5,30.56,NNE,22,0.0,0.0,64,0.00,,CLR,0.00,VWS V14.01,2013-01-18 10:42:00,
2013-01-18 05:47:00,27.9,16.9,30.56,NE,45,0.0,0.0,63,0.00,,CLR,0.00,VWS V14.01,2013-01-18 10:47:00,
2013-01-18 05:52:00,27.9,16.5,30.56,NE,45,0.0,0.0,62,0.00,,CLR,0.00,VWS V14.01,2013-01-18 10:52:00,
2013-01-18 05:57:00,27.9,16.9,30.56,NE,45,0.0,0.0,63,0.00,,CLR,0.00,VWS V14.01,2013-01-18 10:57:00,
2013-01-18 06:02:00,27.9,17.3,30.56,NE,45,0.0,0.0,64,0.00,,CLR,0.00,VWS V14.01,2013-01-18 11:02:00,
2013-01-18 06:07:00,27.9,17.3,30.56,NE,45,0.0,0.0,64,0.00,,CLR,0.00,VWS V14.01,2013-01-18 11:07:00,
2013-01-18 06:12:00,27.9,17.3,30.53,NE,45,0.0,0.0,64,0.00,,CLR,0.00,VWS V14.01,2013-01-18 11:12:00,
2013-01-18 06:17:00,27.7,17.1,30.53,NE,45,0.0,0.0,64,0.00,,CLR,0.00,VWS V14.01,2013-01-18 11:17:00,
2013-01-18 06:22:00,27.5,16.9,30.53,NE,45,0.0,0.0,64,0.00,,CLR,0.00,VWS V14.01,2013-01-18 11:22:00,
2013-01-18 06:27:00,27.5,16.9,30.56,NE,45,0.0,0.0,64,0.00,,CLR,0.00,VWS V14.01,2013-01-18 11:27:00,
2013-01-18 06:32:00,27.3,16.8,30.56,ENE,68,0.0,0.0,64,0.00,,CLR,0.00,VWS V14.01,2013-01-18 11:32:00,
2013-01-18 06:37:00,27.5,16.9,30.56,SE,135,0.0,0.0,64,0.00,,CLR,0.00,VWS V14.01,2013-01-18 11:37:00,
2013-01-18 06:42:00,27.5,16.6,30.56,ESE,112,0.0,0.0,63,0.00,,CLR,0.00,VWS V14.01,2013-01-18 11:42:00,
2013-01-18 06:47:00,27.7,16.7,30.56,ESE,112,0.0,0.0,63,0.00,,CLR,0.00,VWS V14.01,2013-01-18 11:47:00,
2013-01-18 06:52:00,27.7,16.4,30.56,ESE,112,0.0,0.0,62,0.00,,CLR,0.00,VWS V14.01,2013-01-18 11:52:00,
2013-01-18 06:57:00,27.7,16.7,30.56,SE,135,0.0,0.0,63,0.00,,CLR,0.00,VWS V14.01,2013-01-18 11:57:00,
2013-01-18 07:02:00,27.5,16.2,30.56,ESE,112,0.0,0.0,62,0.00,,CLR,0.00,VWS V14.01,2013-01-18 12:02:00,
2013-01-18 07:07:00,27.5,16.2,30.56,ESE,112,0.0,0.0,62,0.00,,CLR,0.00,VWS V14.01,2013-01-18 12:07:00,
2013-01-18 07:12:00,27.5,16.2,30.53,ESE,112,0.0,0.0,62,0.00,,CLR,0.00,VWS V14.01,2013-01-18 12:12:00,
2013-01-18 07:17:00,27.3,16.0,30.53,ESE,112,0.0,0.0,62,0.00,,CLR,0.00,VWS V14.01,2013-01-18 12:17:00,
2013-01-18 07:22:00,27.3,15.7,30.53,NNW,338,0.0,0.0,61,0.00,,CLR,0.00,VWS V14.01,2013-01-18 12:22:00,
2013-01-18 07:27:00,27.5,15.8,30.53,ENE,68,0.0,0.0,61,0.00,,CLR,0.00,VWS V14.01,2013-01-18 12:27:00,
2013-01-18 07:32:00,27.5,16.2,30.53,ENE,68,0.0,0.0,62,0.00,,CLR,0.00,VWS V14.01,2013-01-18 12:32:00,
2013-01-18 07:37:00,27.5,16.2,30.53,ENE,68,0.0,0.0,62,0.00,,CLR,0.00,VWS V14.01,2013-01-18 12:37:00,
2013-01-18 07:42:00,27.3,15.7,30.53,ENE,68,0.0,0.0,61,0.00,,CLR,0.00,VWS V14.01,2013-01-18 12:42:00,
2013-01-18 07:47:00,27.3,16.0,30.53,ENE,68,0.0,0.0,62,0.00,,CLR,0.00,VWS V14.01,2013-01-18 12:47:00,
2013-01-18 07:52:00,27.1,15.9,30.53,East,90,0.0,0.0,62,0.00,,CLR,0.00,VWS V14.01,2013-01-18 12:52:00,
2013-01-18 07:57:00,27.1,15.5,30.53,East,90,0.0,0.0,61,0.00,,CLR,0.00,VWS V14.01,2013-01-18 12:57:00,
2013-01-18 08:02:00,27.0,15.3,30.53,East,90,0.0,0.0,61,0.00,,CLR,0.00,VWS V14.01,2013-01-18 13:02:00,
2013-01-18 08:07:00,27.0,15.7,30.53,SSE,158,0.0,2.2,62,0.00,,CLR,0.00,VWS V14.01,2013-01-18 13:07:00,
2013-01-18 08:12:00,27.0,16.1,30.53,SSE,158,0.0,2.2,63,0.00,,CLR,0.00,VWS V14.01,2013-01-18 13:12:00,
2013-01-18 08:17:00,27.0,16.1,30.53,SSE,158,0.0,2.2,63,0.00,,CLR,0.00,VWS V14.01,2013-01-18 13:17:00,
2013-01-18 08:22:00,27.0,16.1,30.53,SSE,158,0.0,2.2,63,0.00,,CLR,0.00,VWS V14.01,2013-01-18 13:22:00,
2013-01-18 08:27:00,27.0,16.1,30.56,ESE,112,0.0,2.2,63,0.00,,CLR,0.00,VWS V14.01,2013-01-18 13:27:00,
2013-01-18 08:32:00,27.3,16.4,30.56,ESE,112,0.0,2.2,63,0.00,,CLR,0.00,VWS V14.01,2013-01-18 13:32:00,
2013-01-18 08:37:00,27.5,16.6,30.56,ESE,112,0.0,2.2,63,0.00,,CLR,0.00,VWS V14.01,2013-01-18 13:37:00,
2013-01-18 08:42:00,27.7,16.7,30.56,ESE,112,0.0,2.2,63,0.00,,CLR,0.00,VWS V14.01,2013-01-18 13:42:00,
2013-01-18 08:47:00,27.9,16.5,30.56,ESE,112,0.0,2.2,62,0.00,,CLR,0.00,VWS V14.01,2013-01-18 13:47:00,
2013-01-18 08:52:00,28.0,16.7,30.56,ESE,112,0.0,2.2,62,0.00,,CLR,0.00,VWS V14.01,2013-01-18 13:52:00,
2013-01-18 08:57:00,28.4,17.1,30.56,SSE,158,1.3,2.2,62,0.00,,CLR,0.00,VWS V14.01,2013-01-18 13:57:00,
2013-01-18 09:02:00,28.6,16.9,30.56,East,90,0.0,1.3,61,0.00,,CLR,0.00,VWS V14.01,2013-01-18 14:02:00,
2013-01-18 09:07:00,29.1,16.6,30.56,ESE,112,1.6,2.9,59,0.00,,CLR,0.00,VWS V14.01,2013-01-18 14:07:00,
2013-01-18 09:12:00,29.3,16.8,30.56,SSE,158,1.3,2.9,59,0.00,,CLR,0.00,VWS V14.01,2013-01-18 14:12:00,
2013-01-18 09:17:00,29.5,16.1,30.56,ESE,112,2.0,3.1,57,0.00,,CLR,0.00,VWS V14.01,2013-01-18 14:17:00,
2013-01-18 09:22:00,29.8,16.1,30.56,SSE,158,2.5,5.4,56,0.00,,CLR,0.00,VWS V14.01,2013-01-18 14:22:00,
2013-01-18 09:27:00,30.0,15.4,30.56,SE,135,1.3,5.6,54,0.00,,CLR,0.00,VWS V14.01,2013-01-18 14:27:00,
2013-01-18 09:32:00,30.0,15.0,30.56,ESE,112,2.0,5.6,53,0.00,,CLR,0.00,VWS V14.01,2013-01-18 14:32:00,
2013-01-18 09:37:00,30.2,14.7,30.56,ESE,112,0.0,5.6,52,0.00,,CLR,0.00,VWS V14.01,2013-01-18 14:37:00,
2013-01-18 09:42:00,30.6,15.0,30.56,SSE,158,2.2,5.6,52,0.00,,CLR,0.00,VWS V14.01,2013-01-18 14:42:00,
2013-01-18 09:47:00,30.7,14.8,30.56,SSE,158,2.7,6.0,51,0.00,,CLR,0.00,VWS V14.01,2013-01-18 14:47:00,
2013-01-18 09:52:00,31.1,15.1,30.56,SSW,202,2.5,6.0,51,0.00,,CLR,0.00,VWS V14.01,2013-01-18 14:52:00,
2013-01-18 09:57:00,31.3,15.3,30.56,SW,225,3.6,6.0,51,0.00,,CLR,0.00,VWS V14.01,2013-01-18 14:57:00,
2013-01-18 10:02:00,31.5,15.4,30.56,ESE,112,2.5,5.8,51,0.00,,CLR,0.00,VWS V14.01,2013-01-18 15:02:00,
2013-01-18 10:07:00,31.8,15.8,30.56,SSE,158,3.4,5.8,51,0.00,,CLR,0.00,VWS V14.01,2013-01-18 15:07:00,
2013-01-18 10:12:00,32.2,15.6,30.59,SSE,158,1.3,5.8,50,0.00,,CLR,0.00,VWS V14.01,2013-01-18 15:12:00,
2013-01-18 10:17:00,32.2,15.2,30.59,SSE,158,0.0,5.8,49,0.00,,CLR,0.00,VWS V14.01,2013-01-18 15:17:00,
2013-01-18 10:22:00,32.4,15.4,30.59,NNW,338,0.0,5.8,49,0.00,,CLR,0.00,VWS V14.01,2013-01-18 15:22:00,
2013-01-18 10:27:00,32.5,15.0,30.62,SSE,158,1.6,5.8,48,0.00,,CLR,0.00,VWS V14.01,2013-01-18 15:27:00,
2013-01-18 10:32:00,32.7,14.7,30.62,SSE,158,3.8,5.8,47,0.00,,CLR,0.00,VWS V14.01,2013-01-18 15:32:00,
2013-01-18 10:37:00,33.1,15.1,30.62,East,90,1.3,6.3,47,0.00,,CLR,0.00,VWS V14.01,2013-01-18 15:37:00,
2013-01-18 10:42:00,33.1,14.6,30.59,SSE,158,1.3,6.3,46,0.00,,CLR,0.00,VWS V14.01,2013-01-18 15:42:00,
2013-01-18 10:47:00,33.3,14.7,30.59,South,180,2.5,6.3,46,0.00,,CLR,0.00,VWS V14.01,2013-01-18 15:47:00,
2013-01-18 10:52:00,33.6,15.1,30.59,SSE,158,2.5,6.3,46,0.00,,CLR,0.00,VWS V14.01,2013-01-18 15:52:00,
2013-01-18 10:57:00,34.0,15.4,30.59,South,180,0.0,6.3,46,0.00,,CLR,0.00,VWS V14.01,2013-01-18 15:57:00,
2013-01-18 11:02:00,34.0,13.9,30.59,ESE,112,3.4,4.3,43,0.00,,CLR,0.00,VWS V14.01,2013-01-18 16:02:00,
2013-01-18 11:07:00,34.3,14.7,30.59,South,180,2.0,5.4,44,0.00,,CLR,0.00,VWS V14.01,2013-01-18 16:07:00,
2013-01-18 11:12:00,34.5,13.8,30.59,NNE,22,0.9,5.4,42,0.00,,CLR,0.00,VWS V14.01,2013-01-18 16:12:00,
2013-01-18 11:17:00,34.7,14.5,30.59,SSE,158,0.0,5.4,43,0.00,,CLR,0.00,VWS V14.01,2013-01-18 16:17:00,
2013-01-18 11:22:00,35.1,14.8,30.59,South,180,3.8,5.8,43,0.00,,CLR,0.00,VWS V14.01,2013-01-18 16:22:00,
2013-01-18 11:27:00,35.2,15.0,30.59,ENE,68,4.7,5.8,43,0.00,,CLR,0.00,VWS V14.01,2013-01-18 16:27:00,
2013-01-18 11:32:00,35.4,15.2,30.59,ESE,112,4.9,5.8,43,0.00,,CLR,0.00,VWS V14.01,2013-01-18 16:32:00,
2013-01-18 11:37:00,35.6,14.8,30.59,WSW,248,0.0,5.8,42,0.00,,CLR,0.00,VWS V14.01,2013-01-18 16:37:00,
2013-01-18 11:42:00,36.0,15.1,30.59,WSW,248,2.7,5.8,42,0.00,,CLR,0.00,VWS V14.01,2013-01-18 16:42:00,
2013-01-18 11:47:00,36.3,15.4,30.59,ESE,112,0.0,5.8,42,0.00,,CLR,0.00,VWS V14.01,2013-01-18 16:47:00,
2013-01-18 11:52:00,36.9,16.5,30.59,South,180,2.5,5.8,43,0.00,,CLR,0.00,VWS V14.01,2013-01-18 16:52:00,
2013-01-18 11:57:00,37.0,16.1,30.56,South,180,4.0,5.8,42,0.00,,CLR,0.00,VWS V14.01,2013-01-18 16:57:00,
2013-01-18 12:02:00,37.4,15.9,30.56,WSW,248,0.0,4.7,41,0.00,,CLR,0.00,VWS V14.01,2013-01-18 17:02:00,
2013-01-18 12:07:00,37.6,16.6,30.56,SSE,158,2.7,4.7,42,0.00,,CLR,0.00,VWS V14.01,2013-01-18 17:07:00,
2013-01-18 12:12:00,38.1,17.1,30.56,ESE,112,2.7,4.7,42,0.00,,CLR,0.00,VWS V14.01,2013-01-18 17:12:00,
2013-01-18 12:17:00,38.1,15.9,30.56,SSW,202,2.0,4.7,40,0.00,,CLR,0.00,VWS V14.01,2013-01-18 17:17:00,
2013-01-18 12:22:00,38.5,16.3,30.56,SSE,158,4.0,6.5,40,0.00,,CLR,0.00,VWS V14.01,2013-01-18 17:22:00,
2013-01-18 12:27:00,38.7,17.0,30.56,South,180,0.0,6.5,41,0.00,,CLR,0.00,VWS V14.01,2013-01-18 17:27:00,
2013-01-18 12:32:00,39.0,17.3,30.56,South,180,1.3,6.5,41,0.00,,CLR,0.00,VWS V14.01,2013-01-18 17:32:00,
2013-01-18 12:37:00,39.4,16.5,30.56,SSW,202,1.1,6.5,39,0.00,,CLR,0.00,VWS V14.01,2013-01-18 17:37:00,
2013-01-18 12:42:00,39.7,16.8,30.56,SW,225,4.3,6.5,39,0.00,,CLR,0.00,VWS V14.01,2013-01-18 17:42:00,
2013-01-18 12:47:00,40.1,17.7,30.56,SSW,202,2.7,6.5,40,0.00,,CLR,0.00,VWS V14.01,2013-01-18 17:47:00,
2013-01-18 12:52:00,40.5,17.5,30.56,South,180,3.8,6.5,39,0.00,,CLR,0.00,VWS V14.01,2013-01-18 17:52:00,
2013-01-18 12:57:00,40.8,17.8,30.53,SW,225,4.0,6.5,39,0.00,,CLR,0.00,VWS V14.01,2013-01-18 17:57:00,
2013-01-18 13:02:00,41.5,18.4,30.53,SSE,158,4.0,5.8,39,0.00,,CLR,0.00,VWS V14.01,2013-01-18 18:02:00,
2013-01-18 13:07:00,41.7,18.0,30.53,SSE,158,1.3,5.8,38,0.00,,CLR,0.00,VWS V14.01,2013-01-18 18:07:00,
2013-01-18 13:12:00,41.7,18.0,30.53,SSW,202,3.8,6.0,38,0.00,,CLR,0.00,VWS V14.01,2013-01-18 18:12:00,
2013-01-18 13:17:00,42.3,18.5,30.53,SSW,202,2.9,6.0,38,0.00,,CLR,0.00,VWS V14.01,2013-01-18 18:17:00,
2013-01-18 13:22:00,42.3,17.2,30.53,SW,225,4.9,6.5,36,0.00,,CLR,0.00,VWS V14.01,2013-01-18 18:22:00,
2013-01-18 13:27:00,42.4,18.6,30.50,South,180,2.9,6.5,38,0.00,,CLR,0.00,VWS V14.01,2013-01-18 18:27:00,
2013-01-18 13:32:00,42.8,17.1,30.50,SW,225,3.1,6.5,35,0.00,,CLR,0.00,VWS V14.01,2013-01-18 18:32:00,
2013-01-18 13:37:00,43.0,17.2,30.50,SSW,202,3.6,6.5,35,0.00,,CLR,0.00,VWS V14.01,2013-01-18 18:37:00,
2013-01-18 13:42:00,43.2,16.7,30.50,South,180,3.8,6.5,34,0.00,,CLR,0.00,VWS V14.01,2013-01-18 18:42:00,
2013-01-18 13:47:00,43.3,16.9,30.50,SSE,158,3.1,7.4,34,0.00,,CLR,0.00,VWS V14.01,2013-01-18 18:47:00,
2013-01-18 13:52:00,43.5,17.7,30.50,SW,225,3.6,7.4,35,0.00,,CLR,0.00,VWS V14.01,2013-01-18 18:52:00,
2013-01-18 13:57:00,43.7,17.9,30.50,SSW,202,4.3,7.8,35,0.00,,CLR,0.00,VWS V14.01,2013-01-18 18:57:00,
2013-01-18 14:02:00,43.9,18.7,30.50,South,180,3.6,6.5,36,0.00,,CLR,0.00,VWS V14.01,2013-01-18 19:02:00,
2013-01-18 14:07:00,44.4,18.5,30.50,WNW,292,2.9,7.6,35,0.00,,CLR,0.00,VWS V14.01,2013-01-18 19:07:00,
2013-01-18 14:12:00,44.4,17.8,30.50,SSE,158,4.3,7.6,34,0.00,,CLR,0.00,VWS V14.01,2013-01-18 19:12:00,
2013-01-18 14:17:00,44.4,17.8,30.50,West,270,4.7,7.6,34,0.00,,CLR,0.00,VWS V14.01,2013-01-18 19:17:00,
2013-01-18 14:22:00,44.6,17.3,30.50,SW,225,6.5,7.6,33,0.00,,CLR,0.00,VWS V14.01,2013-01-18 19:22:00,
2013-01-18 14:27:00,44.8,18.8,30.50,SSW,202,2.9,7.6,35,0.00,,CLR,0.00,VWS V14.01,2013-01-18 19:27:00,
2013-01-18 14:32:00,45.1,18.5,30.50,SW,225,2.5,7.6,34,0.00,,CLR,0.00,VWS V14.01,2013-01-18 19:32:00,
2013-01-18 14:37:00,45.3,18.6,30.50,SSW,202,3.8,7.6,34,0.00,,CLR,0.00,VWS V14.01,2013-01-18 19:37:00,
2013-01-18 14:42:00,45.5,18.1,30.50,WSW,248,2.7,7.6,33,0.00,,CLR,0.00,VWS V14.01,2013-01-18 19:42:00,
2013-01-18 14:47:00,45.5,17.4,30.50,SSW,202,3.1,7.6,32,0.00,,CLR,0.00,VWS V14.01,2013-01-18 19:47:00,
2013-01-18 14:52:00,45.7,17.5,30.50,South,180,6.3,7.6,32,0.00,,CLR,0.00,VWS V14.01,2013-01-18 19:52:00,
2013-01-18 14:57:00,45.9,18.4,30.50,SSW,202,4.3,7.6,33,0.00,,CLR,0.00,VWS V14.01,2013-01-18 19:57:00,
2013-01-18 15:02:00,46.0,19.3,30.50,SSE,158,5.8,5.8,34,0.00,,CLR,0.00,VWS V14.01,2013-01-18 20:02:00,
2013-01-18 15:07:00,46.0,17.9,30.50,SSE,158,3.4,6.0,32,0.00,,CLR,0.00,VWS V14.01,2013-01-18 20:07:00,
2013-01-18 15:12:00,46.0,18.6,30.47,SSE,158,5.4,6.3,33,0.00,,CLR,0.00,VWS V14.01,2013-01-18 20:12:00,
2013-01-18 15:17:00,46.0,17.9,30.47,SSW,202,3.4,6.5,32,0.00,,CLR,0.00,VWS V14.01,2013-01-18 20:17:00,
2013-01-18 15:22:00,46.0,17.9,30.47,WSW,248,6.0,6.5,32,0.00,,CLR,0.00,VWS V14.01,2013-01-18 20:22:00,
2013-01-18 15:27:00,46.0,17.1,30.50,SSW,202,5.8,6.5,31,0.00,,CLR,0.00,VWS V14.01,2013-01-18 20:27:00,
2013-01-18 15:32:00,46.0,17.1,30.50,SSE,158,4.3,6.5,31,0.00,,CLR,0.00,VWS V14.01,2013-01-18 20:32:00,
2013-01-18 15:37:00,46.0,16.4,30.50,SSE,158,8.7,8.7,30,0.00,,CLR,0.00,VWS V14.01,2013-01-18 20:37:00,
2013-01-18 15:42:00,46.0,17.1,30.47,SSE,158,2.9,8.7,31,0.00,,CLR,0.00,VWS V14.01,2013-01-18 20:42:00,
2013-01-18 15:47:00,45.9,17.0,30.47,South,180,7.8,8.7,31,0.00,,CLR,0.00,VWS V14.01,2013-01-18 20:47:00,
2013-01-18 15:52:00,45.9,17.0,30.47,SSE,158,4.0,8.7,31,0.00,,CLR,0.00,VWS V14.01,2013-01-18 20:52:00,
2013-01-18 15:57:00,45.9,17.0,30.47,SW,225,4.7,8.7,31,0.00,,CLR,0.00,VWS V14.01,2013-01-18 20:57:00,
2013-01-18 16:02:00,45.9,17.0,30.47,SSW,202,4.9,5.8,31,0.00,,CLR,0.00,VWS V14.01,2013-01-18 21:02:00,
2013-01-18 16:07:00,45.7,16.8,30.47,South,180,4.3,6.0,31,0.00,,CLR,0.00,VWS V14.01,2013-01-18 21:07:00,
2013-01-18 16:12:00,45.7,16.8,30.44,SSW,202,4.7,6.0,31,0.00,,CLR,0.00,VWS V14.01,2013-01-18 21:12:00,
2013-01-18 16:17:00,45.7,16.8,30.44,SSE,158,4.0,7.4,31,0.00,,CLR,0.00,VWS V14.01,2013-01-18 21:17:00,
2013-01-18 16:22:00,45.7,16.8,30.44,South,180,2.0,7.4,31,0.00,,CLR,0.00,VWS V14.01,2013-01-18 21:22:00,
2013-01-18 16:27:00,45.7,16.8,30.44,SSE,158,3.8,7.6,31,0.00,,CLR,0.00,VWS V14.01,2013-01-18 21:27:00,
2013-01-18 16:32:00,45.5,16.6,30.44,SSW,202,1.3,7.6,31,0.00,,CLR,0.00,VWS V14.01,2013-01-18 21:32:00,
2013-01-18 16:37:00,45.5,16.6,30.44,SSW,202,4.0,7.6,31,0.00,,CLR,0.00,VWS V14.01,2013-01-18 21:37:00,
2013-01-18 16:42:00,45.3,16.5,30.44,SSW,202,3.8,7.6,31,0.00,,CLR,0.00,VWS V14.01,2013-01-18 21:42:00,
2013-01-18 16:47:00,45.1,16.3,30.44,South,180,2.7,7.6,31,0.00,,CLR,0.00,VWS V14.01,2013-01-18 21:47:00,
2013-01-18 16:52:00,45.1,16.3,30.44,SSE,158,6.3,7.6,31,0.00,,CLR,0.00,VWS V14.01,2013-01-18 21:52:00,
2013-01-18 16:57:00,45.0,16.2,30.44,WSW,248,2.9,7.6,31,0.00,,CLR,0.00,VWS V14.01,2013-01-18 21:57:00,
2013-01-18 17:02:00,44.8,16.7,30.44,SW,225,5.4,7.6,32,0.00,,CLR,0.00,VWS V14.01,2013-01-18 22:02:00,
2013-01-18 17:07:00,44.6,16.6,30.44,SSE,158,4.7,7.6,32,0.00,,CLR,0.00,VWS V14.01,2013-01-18 22:07:00,
2013-01-18 17:12:00,44.2,16.3,30.44,SW,225,3.1,7.6,32,0.00,,CLR,0.00,VWS V14.01,2013-01-18 22:12:00,
2013-01-18 17:17:00,44.2,16.3,30.44,South,180,3.6,7.6,32,0.00,,CLR,0.00,VWS V14.01,2013-01-18 22:17:00,
2013-01-18 17:22:00,44.1,16.8,30.44,SSW,202,2.7,7.6,33,0.00,,CLR,0.00,VWS V14.01,2013-01-18 22:22:00,
2013-01-18 17:27:00,43.7,16.5,30.44,SSE,158,4.3,7.6,33,0.00,,CLR,0.00,VWS V14.01,2013-01-18 22:27:00,
2013-01-18 17:32:00,43.5,16.3,30.44,SSW,202,2.7,7.6,33,0.00,,CLR,0.00,VWS V14.01,2013-01-18 22:32:00,
2013-01-18 17:37:00,43.3,16.2,30.44,SSW,202,2.5,7.6,33,0.00,,CLR,0.00,VWS V14.01,2013-01-18 22:37:00,
2013-01-18 17:42:00,43.2,16.7,30.44,South,180,4.3,7.6,34,0.00,,CLR,0.00,VWS V14.01,2013-01-18 22:42:00,
2013-01-18 17:47:00,42.8,16.4,30.44,South,180,2.7,7.6,34,0.00,,CLR,0.00,VWS V14.01,2013-01-18 22:47:00,
2013-01-18 17:52:00,42.6,16.9,30.44,South,180,3.1,7.6,35,0.00,,CLR,0.00,VWS V14.01,2013-01-18 22:52:00,
2013-01-18 17:57:00,42.4,16.7,30.44,SSW,202,2.9,7.6,35,0.00,,CLR,0.00,VWS V14.01,2013-01-18 22:57:00,
2013-01-18 18:02:00,42.3,16.6,30.44,South,180,2.5,3.8,35,0.00,,CLR,0.00,VWS V14.01,2013-01-18 23:02:00,
2013-01-18 18:07:00,41.9,16.9,30.44,South,180,0.0,3.8,36,0.00,,CLR,0.00,VWS V14.01,2013-01-18 23:07:00,
2013-01-18 18:12:00,41.5,16.6,30.44,SSE,158,2.9,3.8,36,0.00,,CLR,0.00,VWS V14.01,2013-01-18 23:12:00,
2013-01-18 18:17:00,41.4,16.4,30.44,SSE,158,2.2,3.8,36,0.00,,CLR,0.00,VWS V14.01,2013-01-18 23:17:00,
2013-01-18 18:22:00,41.2,16.9,30.44,South,180,0.0,3.8,37,0.00,,CLR,0.00,VWS V14.01,2013-01-18 23:22:00,
2013-01-18 18:27:00,41.0,16.7,30.41,South,180,1.3,3.8,37,0.00,,CLR,0.00,VWS V14.01,2013-01-18 23:27:00,
2013-01-18 18:32:00,40.6,17.0,30.41,SSE,158,0.0,3.8,38,0.00,,CLR,0.00,VWS V14.01,2013-01-18 23:32:00,
2013-01-18 18:37:00,40.5,16.9,30.41,SSE,158,0.9,3.8,38,0.00,,CLR,0.00,VWS V14.01,2013-01-18 23:37:00,
2013-01-18 18:42:00,40.3,17.3,30.41,SSE,158,2.2,3.8,39,0.00,,CLR,0.00,VWS V14.01,2013-01-18 23:42:00,
2013-01-18 18:47:00,40.3,17.3,30.41,SSE,158,1.1,3.8,39,0.00,,CLR,0.00,VWS V14.01,2013-01-18 23:47:00,
2013-01-18 18:52:00,39.9,17.0,30.41,SSE,158,0.0,3.8,39,0.00,,CLR,0.00,VWS V14.01,2013-01-18 23:52:00,
2013-01-18 18:57:00,39.7,16.8,30.41,SSE,158,1.3,4.0,39,0.00,,CLR,0.00,VWS V14.01,2013-01-18 23:57:00,
2013-01-18 19:02:00,39.7,16.8,30.41,SSE,158,0.0,1.3,39,0.00,,CLR,0.00,VWS V14.01,2013-01-19 00:02:00,
2013-01-18 19:07:00,39.7,16.8,30.41,SSE,158,0.0,1.3,39,0.00,,CLR,0.00,VWS V14.01,2013-01-19 00:07:00,
2013-01-18 19:12:00,39.6,16.7,30.41,SSE,158,0.0,1.3,39,0.00,,CLR,0.00,VWS V14.01,2013-01-19 00:12:00,
2013-01-18 19:17:00,39.4,16.5,30.41,SSE,158,0.0,1.6,39,0.00,,CLR,0.00,VWS V14.01,2013-01-19 00:17:00,
2013-01-18 19:22:00,39.2,16.3,30.41,South,180,0.9,3.1,39,0.00,,CLR,0.00,VWS V14.01,2013-01-19 00:22:00,
2013-01-18 19:27:00,39.2,16.9,30.41,SSE,158,0.0,3.1,40,0.00,,CLR,0.00,VWS V14.01,2013-01-19 00:27:00,
2013-01-18 19:32:00,39.0,16.8,30.41,South,180,1.3,3.1,40,0.00,,CLR,0.00,VWS V14.01,2013-01-19 00:32:00,
2013-01-18 19:37:00,38.8,17.2,30.41,South,180,2.0,3.1,41,0.00,,CLR,0.00,VWS V14.01,2013-01-19 00:37:00,
2013-01-18 19:42:00,38.7,17.0,30.41,South,180,0.0,3.1,41,0.00,,CLR,0.00,VWS V14.01,2013-01-19 00:42:00,
2013-01-18 19:47:00,38.7,17.0,30.41,SSE,158,1.6,3.1,41,0.00,,CLR,0.00,VWS V14.01,2013-01-19 00:47:00,
2013-01-18 19:52:00,38.7,17.0,30.41,South,180,0.0,3.1,41,0.00,,CLR,0.00,VWS V14.01,2013-01-19 00:52:00,
2013-01-18 19:57:00,38.7,17.0,30.41,South,180,0.0,3.1,41,0.00,,CLR,0.00,VWS V14.01,2013-01-19 00:57:00,
2013-01-18 20:02:00,38.7,17.0,30.41,South,180,1.1,1.3,41,0.00,,CLR,0.00,VWS V14.01,2013-01-19 01:02:00,
2013-01-18 20:07:00,38.7,17.6,30.41,South,180,0.0,1.6,42,0.00,,CLR,0.00,VWS V14.01,2013-01-19 01:07:00,
2013-01-18 20:12:00,38.5,17.4,30.41,South,180,2.5,2.5,42,0.00,,CLR,0.00,VWS V14.01,2013-01-19 01:12:00,
2013-01-18 20:17:00,38.5,17.4,30.41,SSW,202,1.3,2.7,42,0.00,,CLR,0.00,VWS V14.01,2013-01-19 01:17:00,
2013-01-18 20:22:00,38.3,17.2,30.41,SSE,158,2.0,2.9,42,0.00,,CLR,0.00,VWS V14.01,2013-01-19 01:22:00,
2013-01-18 20:27:00,38.3,17.8,30.39,South,180,1.1,3.1,43,0.00,,CLR,0.00,VWS V14.01,2013-01-19 01:27:00,
2013-01-18 20:32:00,38.3,17.8,30.39,South,180,1.3,3.1,43,0.00,,CLR,0.00,VWS V14.01,2013-01-19 01:32:00,
2013-01-18 20:37:00,38.1,17.6,30.39,South,180,1.6,3.1,43,0.00,,CLR,0.00,VWS V14.01,2013-01-19 01:37:00,
2013-01-18 20:42:00,38.1,17.6,30.39,South,180,0.0,3.1,43,0.00,,CLR,0.00,VWS V14.01,2013-01-19 01:42:00,
2013-01-18 20:47:00,38.1,17.6,30.39,South,180,0.0,3.1,43,0.00,,CLR,0.00,VWS V14.01,2013-01-19 01:47:00,
2013-01-18 20:52:00,38.1,18.1,30.39,South,180,1.6,3.1,44,0.00,,CLR,0.00,VWS V14.01,2013-01-19 01:52:00,
2013-01-18 20:57:00,37.9,18.0,30.39,South,180,1.6,3.1,44,0.00,,CLR,0.00,VWS V14.01,2013-01-19 01:57:00,
2013-01-18 21:02:00,37.9,18.0,30.39,SSW,202,2.2,2.9,44,0.00,,CLR,0.00,VWS V14.01,2013-01-19 02:02:00,
2013-01-18 21:07:00,37.9,18.0,30.39,South,180,1.1,2.9,44,0.00,,CLR,0.00,VWS V14.01,2013-01-19 02:07:00,
2013-01-18 21:12:00,37.8,18.3,30.39,South,180,1.6,3.1,45,0.00,,CLR,0.00,VWS V14.01,2013-01-19 02:12:00,
2013-01-18 21:17:00,37.8,18.3,30.39,SSE,158,2.5,3.1,45,0.00,,CLR,0.00,VWS V14.01,2013-01-19 02:17:00,
2013-01-18 21:22:00,37.9,18.5,30.39,South,180,3.4,3.4,45,0.00,,CLR,0.00,VWS V14.01,2013-01-19 02:22:00,
2013-01-18 21:27:00,37.9,18.5,30.39,SSW,202,1.1,4.0,45,0.00,,CLR,0.00,VWS V14.01,2013-01-19 02:27:00,
2013-01-18 21:32:00,37.9,18.5,30.39,South,180,2.0,4.0,45,0.00,,CLR,0.00,VWS V14.01,2013-01-19 02:32:00,
2013-01-18 21:37:00,38.1,18.7,30.39,SSW,202,1.6,4.0,45,0.00,,CLR,0.00,VWS V14.01,2013-01-19 02:37:00,
2013-01-18 21:42:00,38.1,18.7,30.36,South,180,1.1,4.0,45,0.00,,CLR,0.00,VWS V14.01,2013-01-19 02:42:00,
2013-01-18 21:47:00,38.1,18.7,30.36,South,180,2.2,4.0,45,0.00,,CLR,0.00,VWS V14.01,2013-01-19 02:47:00,
2013-01-18 21:52:00,38.3,18.8,30.36,WSW,248,2.5,4.9,45,0.00,,CLR,0.00,VWS V14.01,2013-01-19 02:52:00,
2013-01-18 21:57:00,38.3,19.4,30.36,SSW,202,1.1,4.9,46,0.00,,CLR,0.00,VWS V14.01,2013-01-19 02:57:00,
2013-01-18 22:02:00,38.5,19.5,30.36,SSW,202,0.9,3.6,46,0.00,,CLR,0.00,VWS V14.01,2013-01-19 03:02:00,
2013-01-18 22:07:00,38.5,19.5,30.36,SSW,202,5.6,5.6,46,0.00,,CLR,0.00,VWS V14.01,2013-01-19 03:07:00,
2013-01-18 22:12:00,38.7,19.7,30.36,WSW,248,3.6,5.6,46,0.00,,CLR,0.00,VWS V14.01,2013-01-19 03:12:00,
2013-01-18 22:17:00,38.8,19.8,30.36,WSW,248,2.0,8.7,46,0.00,,CLR,0.00,VWS V14.01,2013-01-19 03:17:00,
2013-01-18 22:22:00,39.0,20.0,30.36,South,180,3.1,8.7,46,0.00,,CLR,0.00,VWS V14.01,2013-01-19 03:22:00,
2013-01-18 22:27:00,39.2,19.7,30.39,SW,225,3.8,8.7,45,0.00,,CLR,0.00,VWS V14.01,2013-01-19 03:27:00,
2013-01-18 22:32:00,39.2,19.7,30.39,South,180,3.8,8.7,45,0.00,,CLR,0.00,VWS V14.01,2013-01-19 03:32:00,
2013-01-18 22:37:00,39.4,19.8,30.39,SSW,202,3.8,8.7,45,0.00,,CLR,0.00,VWS V14.01,2013-01-19 03:37:00,
2013-01-18 22:42:00,39.4,19.8,30.39,SW,225,2.7,8.7,45,0.00,,CLR,0.00,VWS V14.01,2013-01-19 03:42:00,
2013-01-18 22:47:00,39.6,20.0,30.39,South,180,3.4,8.7,45,0.00,,CLR,0.00,VWS V14.01,2013-01-19 03:47:00,
2013-01-18 22:52:00,39.6,19.5,30.39,WSW,248,2.9,8.7,44,0.00,,CLR,0.00,VWS V14.01,2013-01-19 03:52:00,
2013-01-18 22:57:00,39.7,19.6,30.39,SW,225,4.9,8.7,44,0.00,,CLR,0.00,VWS V14.01,2013-01-19 03:57:00,
2013-01-18 23:02:00,39.7,19.6,30.39,SSW,202,4.3,7.4,44,0.00,,CLR,0.00,VWS V14.01,2013-01-19 04:02:00,
2013-01-18 23:07:00,39.7,19.6,30.39,SW,225,3.8,7.4,44,0.00,,CLR,0.00,VWS V14.01,2013-01-19 04:07:00,
2013-01-18 23:12:00,39.9,19.8,30.39,SW,225,3.8,7.4,44,0.00,,CLR,0.00,VWS V14.01,2013-01-19 04:12:00,
2013-01-18 23:17:00,39.9,19.8,30.39,WSW,248,5.6,7.4,44,0.00,,CLR,0.00,VWS V14.01,2013-01-19 04:17:00,
2013-01-18 23:22:00,40.1,20.0,30.39,SSW,202,4.9,7.4,44,0.00,,CLR,0.00,VWS V14.01,2013-01-19 04:22:00,
2013-01-18 23:27:00,40.1,20.0,30.36,South,180,4.0,7.4,44,0.00,,CLR,0.00,VWS V14.01,2013-01-19 04:27:00,
2013-01-18 23:32:00,40.1,20.0,30.36,SSE,158,5.4,7.4,44,0.00,,CLR,0.00,VWS V14.01,2013-01-19 04:32:00,
2013-01-18 23:37:00,40.3,20.1,30.36,SSW,202,7.2,7.4,44,0.00,,CLR,0.00,VWS V14.01,2013-01-19 04:37:00,
2013-01-18 23:42:00,40.1,20.0,30.36,SW,225,3.4,7.4,44,0.00,,CLR,0.00,VWS V14.01,2013-01-19 04:42:00,
2013-01-18 23:47:00,40.1,20.0,30.36,SSW,202,5.6,9.8,44,0.00,,CLR,0.00,VWS V14.01,2013-01-19 04:47:00,
2013-01-18 23:52:00,40.1,20.0,30.36,SSW,202,11.9,11.9,44,0.00,,CLR,0.00,VWS V14.01,2013-01-19 04:52:00,
2013-01-18 23:57:00,40.3,20.1,30.36,WSW,248,8.7,11.9,44,0.00,,CLR,0.00,VWS V14.01,2013-01-19 04:57:00,